| time (UTC) | temp C | wind direction | speed KPH | gust KPH | rain 1hr cm | rain 24hr cm | rain mn cm | humidity % | barometer mb |
| 20260510164359 | 20 | 279 | 1.6 | 1.6 | 0.00 | 0.00 | 0.00 | 78 | 1016.9 |
| 20260510163858 | 19 | 32 | 0.0 | 1.6 | 0.00 | 0.00 | 0.00 | 81 | 1017.3 |
| 20260510163355 | 19 | 46 | 0.0 | 0.0 | 0.00 | 0.00 | 0.00 | 82 | 1017.0 |
| 20260510162855 | 19 | 24 | 0.0 | 0.0 | 0.00 | 0.00 | 0.00 | 82 | 1017.2 |
| 20260510162353 | 19 | 293 | 0.0 | 0.0 | 0.00 | 0.00 | 0.00 | 79 | 1017.2 |
| 20260510161848 | 21 | 288 | 0.0 | 1.6 | 0.00 | 0.00 | 0.00 | 72 | 1017.2 |
| 20260510161344 | 22 | 73 | 0.0 | 1.6 | 0.00 | 0.00 | 0.00 | 62 | 1017.2 |
| 20260510160841 | 22 | 94 | 4.8 | 9.7 | 0.00 | 0.00 | 0.00 | 57 | 1017.2 |
| 20260510160339 | 22 | 135 | 3.2 | 6.4 | 0.00 | 0.00 | 0.00 | 56 | 1017.1 |
| 20260510155832 | 22 | 64 | 4.8 | 6.4 | 0.00 | 0.00 | 0.00 | 54 | 1016.8 |
| 20260510155330 | 22 | 179 | 6.4 | 9.7 | 0.00 | 0.00 | 0.00 | 56 | 1016.7 |
| 20260510154826 | 23 | 94 | 8.0 | 12.9 | 0.00 | 0.00 | 0.00 | 52 | 1016.5 |
| 20260510154321 | 23 | 203 | 3.2 | 4.8 | 0.00 | 0.00 | 0.00 | 52 | 1016.5 |
| 20260510153816 | 22 | 160 | 3.2 | 9.7 | 0.00 | 0.00 | 0.00 | 54 | 1016.7 |
| 20260510153312 | 23 | 82 | 9.7 | 14.5 | 0.00 | 0.00 | 0.00 | 53 | 1016.8 |
| 20260510152809 | 23 | 7 | 1.6 | 4.8 | 0.00 | 0.00 | 0.00 | 53 | 1016.9 |
| 20260510152307 | 23 | 133 | 4.8 | 9.7 | 0.00 | 0.00 | 0.00 | 55 | 1017.0 |
| 20260510151803 | 22 | 193 | 1.6 | 9.7 | 0.00 | 0.00 | 0.00 | 55 | 1017.1 |
| 20260510151301 | 22 | 172 | 4.8 | 6.4 | 0.00 | 0.00 | 0.00 | 56 | 1017.2 |
| 20260510150756 | 22 | 83 | 3.2 | 6.4 | 0.00 | 0.00 | 0.00 | 60 | 1017.1 |
| 20260510150252 | 22 | 180 | 1.6 | 4.8 | 0.00 | 0.00 | 0.00 | 57 | 1017.1 |
| 20260510145748 | 22 | 20 | 4.8 | 9.7 | 0.00 | 0.00 | 0.00 | 57 | 1017.2 |
| 20260510145245 | 21 | 165 | 1.6 | 6.4 | 0.00 | 0.00 | 0.00 | 59 | 1017.1 |
| 20260510144740 | 21 | 18 | 3.2 | 6.4 | 0.00 | 0.00 | 0.00 | 62 | 1017.3 |
| 20260510144238 | 20 | 74 | 1.6 | 4.8 | 0.00 | 0.00 | 0.00 | 62 | 1017.4 |
| 20260510143732 | 21 | 95 | 6.4 | 11.3 | 0.00 | 0.00 | 0.00 | 59 | 1017.3 |
| 20260510143229 | 20 | 75 | 3.2 | 3.2 | 0.00 | 0.00 | 0.00 | 61 | 1017.0 |
| 20260510142725 | 21 | 88 | 8.0 | 12.9 | 0.00 | 0.00 | 0.00 | 60 | 1017.2 |
| 20260510142222 | 21 | 94 | 4.8 | 4.8 | 0.00 | 0.00 | 0.00 | 59 | 1017.0 |
| 20260510141719 | 21 | 91 | 3.2 | 4.8 | 0.00 | 0.00 | 0.00 | 62 | 1016.9 |
| 20260510141218 | 20 | 75 | 1.6 | 3.2 | 0.00 | 0.00 | 0.00 | 63 | 1017.0 |
| 20260510140713 | 21 | 140 | 0.0 | 6.4 | 0.00 | 0.00 | 0.00 | 62 | 1017.2 |
| 20260510140208 | 20 | 340 | 1.6 | 6.4 | 0.00 | 0.00 | 0.00 | 64 | 1017.0 |
| 20260510135703 | 20 | 84 | 1.6 | 6.4 | 0.00 | 0.00 | 0.00 | 65 | 1017.1 |
| 20260510135159 | 20 | 117 | 1.6 | 9.7 | 0.00 | 0.00 | 0.00 | 65 | 1017.1 |
| 20260510134656 | 19 | 154 | 3.2 | 6.4 | 0.00 | 0.00 | 0.00 | 65 | 1017.1 |
| 20260510134153 | 20 | 73 | 1.6 | 3.2 | 0.00 | 0.00 | 0.00 | 71 | 1017.0 |
| 20260510133649 | 18 | 118 | 1.6 | 3.2 | 0.00 | 0.00 | 0.00 | 75 | 1017.2 |
| 20260510133145 | 18 | 240 | 0.0 | 6.4 | 0.00 | 0.00 | 0.00 | 71 | 1017.0 |
| 20260510132641 | 18 | 24 | 0.0 | 0.0 | 0.00 | 0.00 | 0.00 | 78 | 1017.3 |
| 20260510132139 | 17 | 342 | 0.0 | 1.6 | 0.00 | 0.00 | 0.00 | 80 | 1017.2 |
| 20260510131636 | 16 | 96 | 0.0 | 0.0 | 0.00 | 0.00 | 0.00 | 86 | 1017.0 |
| 20260510131134 | 15 | 79 | 0.0 | 0.0 | 0.00 | 0.00 | 0.00 | 88 | 1017.2 |
| 20260510130630 | 15 | 69 | 0.0 | 0.0 | 0.00 | 0.00 | 0.00 | 88 | 1017.1 |
| 20260510130127 | 14 | 60 | 0.0 | 0.0 | 0.00 | 0.00 | 0.00 | 89 | 1017.4 |
| 20260510125623 | 13 | 41 | 0.0 | 0.0 | 0.00 | 0.00 | 0.00 | 88 | 1017.5 |
| 20260510125120 | 12 | 82 | 0.0 | 0.0 | 0.00 | 0.00 | 0.00 | 93 | 1017.3 |
| 20260510124617 | 12 | 62 | 0.0 | 0.0 | 0.00 | 0.00 | 0.00 | 93 | 1017.4 |
| 20260510124114 | 12 | 357 | 0.0 | 0.0 | 0.00 | 0.00 | 0.00 | 94 | 1017.1 |
| 20260510123609 | 11 | 34 | 0.0 | 0.0 | 0.00 | 0.00 | 0.00 | 98 | 1017.5 |
| 20260510123106 | 11 | 65 | 0.0 | 0.0 | 0.00 | 0.00 | 0.00 | 99 | 1017.4 |
| 20260510122601 | 10 | 46 | 0.0 | 0.0 | 0.00 | 0.00 | 0.00 | 99 | 1017.3 |
| 20260510122057 | 10 | 68 | 0.0 | 0.0 | 0.00 | 0.00 | 0.00 | 99 | 1017.1 |
| 20260510121554 | 10 | 54 | 0.0 | 0.0 | 0.00 | 0.00 | 0.00 | 99 | 1017.1 |
| 20260510121052 | 10 | 351 | 0.0 | 0.0 | 0.00 | 0.00 | 0.00 | 99 | 1016.9 |
| 20260510120550 | 9 | 10 | 0.0 | 0.0 | 0.00 | 0.00 | 0.00 | 99 | 1017.0 |
| 20260510120049 | 8 | 14 | 0.0 | 0.0 | 0.00 | 0.00 | 0.00 | 99 | 1017.1 |
| 20260510115547 | 8 | 316 | 0.0 | 0.0 | 0.00 | 0.00 | 0.00 | 99 | 1017.2 |
| 20260510115044 | 8 | 0 | 0.0 | 0.0 | 0.00 | 0.00 | 0.00 | 99 | 1017.0 |
| 20260510114539 | 8 | 277 | 0.0 | 0.0 | 0.00 | 0.00 | 0.00 | 99 | 1017.1 |
| 20260510114036 | 8 | 269 | 0.0 | 0.0 | 0.00 | 0.00 | 0.00 | 99 | 1016.8 |
| 20260510113531 | 8 | 269 | 0.0 | 0.0 | 0.00 | 0.00 | 0.00 | 99 | 1016.8 |
| 20260510113029 | 8 | 269 | 0.0 | 0.0 | 0.00 | 0.00 | 0.00 | 99 | 1016.6 |
| 20260510112525 | 7 | 269 | 0.0 | 0.0 | 0.00 | 0.00 | 0.00 | 99 | 1016.5 |
| 20260510112022 | 6 | 268 | 0.0 | 0.0 | 0.00 | 0.00 | 0.00 | 99 | 1016.5 |
| 20260510111519 | 6 | 268 | 0.0 | 0.0 | 0.00 | 0.00 | 0.00 | 99 | 1016.3 |
| 20260510111014 | 6 | 268 | 0.0 | 0.0 | 0.00 | 0.00 | 0.00 | 99 | 1016.2 |
| 20260510110511 | 6 | 268 | 0.0 | 0.0 | 0.00 | 0.00 | 0.00 | 99 | 1016.1 |
| 20260510110007 | 6 | 268 | 0.0 | 0.0 | 0.00 | 0.00 | 0.00 | 99 | 1016.0 |
| 20260510105502 | 6 | 268 | 0.0 | 0.0 | 0.00 | 0.00 | 0.00 | 99 | 1016.1 |
| 20260510104958 | 6 | 268 | 0.0 | 0.0 | 0.00 | 0.00 | 0.00 | 99 | 1015.8 |
| 20260510104454 | 6 | 268 | 0.0 | 0.0 | 0.00 | 0.00 | 0.00 | 99 | 1015.8 |
| 20260510103951 | 6 | 268 | 0.0 | 0.0 | 0.00 | 0.00 | 0.00 | 99 | 1015.8 |
| 20260510103448 | 6 | 268 | 0.0 | 0.0 | 0.00 | 0.00 | 0.00 | 99 | 1015.8 |
| 20260510102943 | 6 | 229 | 0.0 | 0.0 | 0.00 | 0.00 | 0.00 | 99 | 1015.9 |
| 20260510102439 | 6 | 270 | 0.0 | 0.0 | 0.00 | 0.00 | 0.00 | 99 | 1015.8 |
| 20260510101936 | 6 | 270 | 0.0 | 0.0 | 0.00 | 0.00 | 0.00 | 99 | 1015.8 |
| 20260510101434 | 6 | 270 | 0.0 | 0.0 | 0.00 | 0.00 | 0.00 | 99 | 1015.7 |
| 20260510100932 | 6 | 270 | 0.0 | 0.0 | 0.00 | 0.00 | 0.00 | 99 | 1015.3 |
| 20260510100428 | 6 | 270 | 0.0 | 0.0 | 0.00 | 0.00 | 0.00 | 99 | 1015.5 |
| 20260510095924 | 6 | 270 | 0.0 | 0.0 | 0.00 | 0.00 | 0.00 | 99 | 1015.4 |
| 20260510095420 | 6 | 270 | 0.0 | 0.0 | 0.00 | 0.00 | 0.00 | 99 | 1015.3 |
| 20260510094919 | 6 | 271 | 0.0 | 0.0 | 0.00 | 0.00 | 0.00 | 99 | 1015.4 |
| 20260510094414 | 6 | 255 | 0.0 | 0.0 | 0.00 | 0.00 | 0.00 | 99 | 1015.4 |
| 20260510093911 | 6 | 254 | 0.0 | 0.0 | 0.00 | 0.00 | 0.00 | 99 | 1015.1 |
| 20260510093406 | 6 | 283 | 0.0 | 0.0 | 0.00 | 0.00 | 0.00 | 99 | 1015.1 |
| 20260510092903 | 6 | 250 | 0.0 | 0.0 | 0.00 | 0.00 | 0.00 | 99 | 1015.3 |
| 20260510092401 | 6 | 250 | 0.0 | 0.0 | 0.00 | 0.00 | 0.00 | 99 | 1015.3 |
| 20260510091900 | 6 | 250 | 0.0 | 0.0 | 0.00 | 0.00 | 0.00 | 99 | 1015.3 |
| 20260510091358 | 6 | 275 | 0.0 | 0.0 | 0.00 | 0.00 | 0.00 | 99 | 1014.9 |
| 20260510090855 | 6 | 190 | 0.0 | 0.0 | 0.00 | 0.00 | 0.00 | 99 | 1014.9 |
| 20260510090351 | 6 | 189 | 0.0 | 0.0 | 0.00 | 0.00 | 0.00 | 99 | 1014.9 |
| 20260510085847 | 6 | 198 | 0.0 | 0.0 | 0.00 | 0.00 | 0.00 | 99 | 1015.1 |
| 20260510085342 | 6 | 198 | 0.0 | 0.0 | 0.00 | 0.00 | 0.00 | 99 | 1015.1 |
| 20260510084838 | 6 | 198 | 0.0 | 0.0 | 0.00 | 0.00 | 0.00 | 99 | 1014.8 |
| 20260510084335 | 6 | 198 | 0.0 | 0.0 | 0.00 | 0.00 | 0.00 | 99 | 1014.9 |
| 20260510083831 | 6 | 198 | 0.0 | 0.0 | 0.00 | 0.00 | 0.00 | 99 | 1014.7 |
| 20260510083328 | 6 | 198 | 0.0 | 0.0 | 0.00 | 0.00 | 0.00 | 99 | 1014.7 |
| 20260510082824 | 6 | 175 | 0.0 | 0.0 | 0.00 | 0.00 | 0.00 | 99 | 1014.6 |
| 20260510082321 | 6 | 174 | 0.0 | 0.0 | 0.00 | 0.00 | 0.00 | 99 | 1014.7 |
| 20260510081820 | 7 | 173 | 0.0 | 0.0 | 0.00 | 0.00 | 0.00 | 99 | 1014.6 |
| 20260510081316 | 7 | 212 | 0.0 | 0.0 | 0.00 | 0.00 | 0.00 | 99 | 1014.5 |
| 20260510080812 | 7 | 231 | 0.0 | 0.0 | 0.00 | 0.00 | 0.00 | 99 | 1014.7 |
| 20260510080307 | 6 | 256 | 0.0 | 0.0 | 0.00 | 0.00 | 0.00 | 99 | 1014.5 |
| 20260510075805 | 6 | 238 | 0.0 | 0.0 | 0.00 | 0.00 | 0.00 | 99 | 1014.5 |
| 20260510075305 | 7 | 229 | 0.0 | 0.0 | 0.00 | 0.00 | 0.00 | 99 | 1014.5 |
| 20260510074759 | 7 | 220 | 0.0 | 0.0 | 0.00 | 0.00 | 0.00 | 99 | 1014.5 |
| 20260510074255 | 7 | 240 | 0.0 | 0.0 | 0.00 | 0.00 | 0.00 | 99 | 1014.2 |
| 20260510073752 | 7 | 239 | 0.0 | 0.0 | 0.00 | 0.00 | 0.00 | 99 | 1014.4 |
| 20260510073247 | 7 | 198 | 0.0 | 0.0 | 0.00 | 0.00 | 0.00 | 99 | 1014.2 |
| 20260510072743 | 7 | 156 | 0.0 | 0.0 | 0.00 | 0.00 | 0.00 | 99 | 1014.4 |
| 20260510072240 | 7 | 156 | 0.0 | 0.0 | 0.00 | 0.00 | 0.00 | 99 | 1014.5 |
| 20260510071737 | 7 | 156 | 0.0 | 0.0 | 0.00 | 0.00 | 0.00 | 99 | 1014.4 |
| 20260510071233 | 7 | 156 | 0.0 | 0.0 | 0.00 | 0.00 | 0.00 | 99 | 1014.2 |
| 20260510070732 | 7 | 156 | 0.0 | 0.0 | 0.00 | 0.00 | 0.00 | 99 | 1014.5 |
| 20260510070229 | 7 | 156 | 0.0 | 0.0 | 0.00 | 0.00 | 0.00 | 99 | 1014.4 |
| 20260510065723 | 7 | 220 | 0.0 | 0.0 | 0.00 | 0.00 | 0.00 | 99 | 1014.5 |
| 20260510065220 | 7 | 223 | 0.0 | 0.0 | 0.00 | 0.00 | 0.00 | 99 | 1014.3 |
| 20260510064717 | 7 | 223 | 0.0 | 0.0 | 0.00 | 0.00 | 0.00 | 99 | 1014.4 |
| 20260510064214 | 7 | 223 | 0.0 | 0.0 | 0.00 | 0.00 | 0.00 | 99 | 1014.4 |
| 20260510063711 | 7 | 223 | 0.0 | 0.0 | 0.00 | 0.00 | 0.00 | 99 | 1014.5 |
| 20260510063207 | 7 | 223 | 0.0 | 0.0 | 0.00 | 0.00 | 0.00 | 99 | 1014.6 |
| 20260510062704 | 7 | 223 | 0.0 | 0.0 | 0.00 | 0.00 | 0.00 | 99 | 1014.4 |
| 20260510062200 | 7 | 223 | 0.0 | 0.0 | 0.00 | 0.00 | 0.00 | 99 | 1014.7 |
| 20260510061654 | 7 | 223 | 0.0 | 0.0 | 0.00 | 0.00 | 0.00 | 99 | 1014.5 |
| 20260510061152 | 7 | 223 | 0.0 | 0.0 | 0.00 | 0.00 | 0.00 | 99 | 1014.5 |
| 20260510060648 | 7 | 223 | 0.0 | 0.0 | 0.00 | 0.00 | 0.00 | 99 | 1014.5 |
| 20260510060145 | 7 | 223 | 0.0 | 0.0 | 0.00 | 0.00 | 0.00 | 99 | 1014.7 |
| 20260510055642 | 7 | 223 | 0.0 | 0.0 | 0.00 | 0.00 | 0.00 | 99 | 1014.4 |
| 20260510055140 | 7 | 223 | 0.0 | 0.0 | 0.00 | 0.00 | 0.00 | 99 | 1014.5 |
| 20260510054635 | 7 | 223 | 0.0 | 0.0 | 0.00 | 0.00 | 0.00 | 99 | 1014.6 |
| 20260510054131 | 7 | 223 | 0.0 | 0.0 | 0.00 | 0.00 | 0.00 | 99 | 1014.5 |
| 20260510053630 | 7 | 223 | 0.0 | 0.0 | 0.00 | 0.00 | 0.00 | 99 | 1014.7 |
| 20260510053127 | 8 | 223 | 0.0 | 0.0 | 0.00 | 0.00 | 0.00 | 99 | 1014.8 |
| 20260510052623 | 8 | 224 | 0.0 | 0.0 | 0.00 | 0.00 | 0.00 | 99 | 1014.6 |
| 20260510052119 | 8 | 224 | 0.0 | 0.0 | 0.00 | 0.00 | 0.00 | 99 | 1014.7 |
| 20260510051614 | 8 | 224 | 0.0 | 0.0 | 0.00 | 0.00 | 0.00 | 99 | 1014.8 |
| 20260510051112 | 8 | 224 | 0.0 | 0.0 | 0.00 | 0.00 | 0.00 | 99 | 1014.8 |
| 20260510050609 | 8 | 224 | 0.0 | 0.0 | 0.00 | 0.00 | 0.00 | 99 | 1014.9 |
| 20260510050106 | 8 | 224 | 0.0 | 0.0 | 0.00 | 0.00 | 0.00 | 99 | 1015.1 |
| 20260510045603 | 8 | 224 | 0.0 | 0.0 | 0.00 | 0.00 | 0.00 | 99 | 1014.8 |
| 20260510045059 | 8 | 224 | 0.0 | 0.0 | 0.00 | 0.00 | 0.00 | 99 | 1014.9 |
| 20260510044555 | 8 | 224 | 0.0 | 0.0 | 0.00 | 0.00 | 0.00 | 99 | 1014.9 |
| 20260510044053 | 8 | 224 | 0.0 | 0.0 | 0.00 | 0.00 | 0.00 | 99 | 1014.9 |
| 20260510043549 | 8 | 224 | 0.0 | 0.0 | 0.00 | 0.00 | 0.00 | 99 | 1015.1 |
| 20260510043045 | 8 | 229 | 0.0 | 0.0 | 0.00 | 0.00 | 0.00 | 99 | 1014.9 |
| 20260510042544 | 8 | 229 | 0.0 | 0.0 | 0.00 | 0.00 | 0.00 | 99 | 1014.8 |
| 20260510042039 | 8 | 229 | 0.0 | 0.0 | 0.00 | 0.00 | 0.00 | 99 | 1014.8 |
| 20260510041537 | 8 | 229 | 0.0 | 0.0 | 0.00 | 0.00 | 0.00 | 99 | 1014.9 |
| 20260510041034 | 8 | 229 | 0.0 | 0.0 | 0.00 | 0.00 | 0.00 | 99 | 1014.9 |
| 20260510040531 | 8 | 229 | 0.0 | 0.0 | 0.00 | 0.00 | 0.00 | 99 | 1014.8 |
| 20260510040027 | 8 | 229 | 0.0 | 0.0 | 0.00 | 0.00 | 0.00 | 99 | 1014.8 |
| 20260510035523 | 8 | 229 | 0.0 | 0.0 | 0.00 | 0.00 | 0.00 | 99 | 1014.8 |
| 20260510035023 | 9 | 229 | 0.0 | 0.0 | 0.00 | 0.00 | 0.00 | 99 | 1014.6 |
| 20260510034521 | 9 | 229 | 0.0 | 0.0 | 0.00 | 0.00 | 0.00 | 99 | 1014.8 |
| 20260510034017 | 9 | 229 | 0.0 | 0.0 | 0.00 | 0.00 | 0.00 | 99 | 1014.7 |
| 20260510033513 | 9 | 229 | 0.0 | 0.0 | 0.00 | 0.00 | 0.00 | 99 | 1014.6 |
| 20260510033012 | 9 | 229 | 0.0 | 0.0 | 0.00 | 0.00 | 0.00 | 99 | 1014.5 |
| 20260510032508 | 10 | 229 | 0.0 | 0.0 | 0.00 | 0.00 | 0.00 | 99 | 1014.5 |
| 20260510032008 | 9 | 229 | 0.0 | 0.0 | 0.00 | 0.00 | 0.00 | 99 | 1014.3 |
| 20260510031504 | 9 | 229 | 0.0 | 0.0 | 0.00 | 0.00 | 0.00 | 99 | 1014.3 |
| 20260510031000 | 9 | 229 | 0.0 | 0.0 | 0.00 | 0.00 | 0.00 | 99 | 1014.3 |
| 20260510030455 | 10 | 229 | 0.0 | 0.0 | 0.00 | 0.00 | 0.00 | 99 | 1014.3 |
| 20260510025953 | 10 | 229 | 0.0 | 0.0 | 0.00 | 0.00 | 0.00 | 98 | 1014.3 |
| 20260510025450 | 10 | 229 | 0.0 | 0.0 | 0.00 | 0.00 | 0.00 | 99 | 1014.2 |
| 20260510024947 | 10 | 229 | 0.0 | 0.0 | 0.00 | 0.00 | 0.00 | 98 | 1014.1 |
| 20260510024444 | 10 | 229 | 0.0 | 0.0 | 0.00 | 0.00 | 0.00 | 98 | 1014.2 |
| 20260510023939 | 10 | 229 | 0.0 | 0.0 | 0.00 | 0.00 | 0.00 | 98 | 1013.8 |
| 20260510023436 | 10 | 229 | 0.0 | 0.0 | 0.00 | 0.00 | 0.00 | 98 | 1014.0 |
| 20260510022933 | 10 | 229 | 0.0 | 0.0 | 0.00 | 0.00 | 0.00 | 98 | 1013.9 |
| 20260510022432 | 10 | 232 | 0.0 | 0.0 | 0.00 | 0.00 | 0.00 | 98 | 1013.6 |
| 20260510021931 | 11 | 232 | 0.0 | 0.0 | 0.00 | 0.00 | 0.00 | 97 | 1013.7 |
| 20260510021430 | 11 | 231 | 0.0 | 0.0 | 0.00 | 0.00 | 0.00 | 97 | 1013.6 |
| 20260510020927 | 11 | 231 | 0.0 | 0.0 | 0.00 | 0.00 | 0.00 | 97 | 1013.7 |
| 20260510020427 | 11 | 278 | 0.0 | 0.0 | 0.00 | 0.00 | 0.00 | 97 | 1013.6 |
| 20260510015923 | 11 | 277 | 0.0 | 0.0 | 0.00 | 0.00 | 0.00 | 97 | 1013.5 |
| 20260510015419 | 11 | 262 | 0.0 | 0.0 | 0.00 | 0.00 | 0.00 | 96 | 1013.5 |
| 20260510014914 | 11 | 262 | 0.0 | 0.0 | 0.00 | 0.00 | 0.00 | 96 | 1013.4 |
| 20260510014412 | 11 | 257 | 0.0 | 0.0 | 0.00 | 0.00 | 0.00 | 95 | 1013.3 |
| 20260510013909 | 11 | 257 | 0.0 | 0.0 | 0.00 | 0.00 | 0.00 | 95 | 1013.3 |
| 20260510013409 | 12 | 257 | 0.0 | 0.0 | 0.00 | 0.00 | 0.00 | 95 | 1013.2 |
| 20260510012904 | 12 | 262 | 0.0 | 0.0 | 0.00 | 0.00 | 0.00 | 94 | 1013.2 |
| 20260510012359 | 12 | 262 | 0.0 | 0.0 | 0.00 | 0.00 | 0.00 | 94 | 1013.2 |
| 20260510011854 | 12 | 262 | 0.0 | 0.0 | 0.00 | 0.00 | 0.00 | 93 | 1013.0 |
| 20260510011349 | 12 | 262 | 0.0 | 0.0 | 0.00 | 0.00 | 0.00 | 92 | 1012.9 |
| 20260510010846 | 13 | 267 | 0.0 | 0.0 | 0.00 | 0.00 | 0.00 | 91 | 1012.8 |
| 20260510010344 | 13 | 258 | 0.0 | 0.0 | 0.00 | 0.00 | 0.00 | 91 | 1012.9 |
| 20260510005840 | 13 | 269 | 0.0 | 0.0 | 0.00 | 0.00 | 0.00 | 90 | 1012.6 |
| 20260510005336 | 13 | 277 | 0.0 | 0.0 | 0.00 | 0.00 | 0.00 | 90 | 1012.8 |
| 20260510004834 | 13 | 252 | 0.0 | 0.0 | 0.00 | 0.00 | 0.00 | 88 | 1012.6 |
| 20260510004331 | 14 | 276 | 0.0 | 0.0 | 0.00 | 0.00 | 0.00 | 87 | 1012.5 |
| 20260510003829 | 14 | 247 | 0.0 | 0.0 | 0.00 | 0.00 | 0.00 | 86 | 1012.4 |
| 20260510003326 | 15 | 277 | 0.0 | 0.0 | 0.00 | 0.00 | 0.00 | 85 | 1012.3 |
| 20260510002824 | 15 | 285 | 0.0 | 0.0 | 0.00 | 0.00 | 0.00 | 83 | 1012.1 |
| 20260510002322 | 15 | 275 | 0.0 | 1.6 | 0.00 | 0.00 | 0.00 | 83 | 1012.1 |
| 20260510001818 | 16 | 281 | 0.0 | 0.0 | 0.00 | 0.00 | 0.00 | 82 | 1012.1 |
| 20260510001317 | 16 | 344 | 0.0 | 0.0 | 0.00 | 0.00 | 0.00 | 80 | 1012.0 |
| 20260510000812 | 16 | 277 | 0.0 | 0.0 | 0.00 | 0.00 | 0.00 | 79 | 1012.1 |
| 20260510000311 | 17 | 29 | 0.0 | 0.0 | 0.00 | 0.00 | 0.00 | 76 | 1011.9 |
| 20260509235807 | 17 | 61 | 0.0 | 1.6 | 0.00 | 0.00 | 0.00 | 74 | 1011.8 |
| 20260509235306 | 18 | 268 | 0.0 | 0.0 | 0.00 | 0.00 | 0.00 | 71 | 1012.0 |
| 20260509234759 | 18 | 7 | 0.0 | 0.0 | 0.00 | 0.00 | 0.00 | 68 | 1011.8 |
| 20260509234256 | 18 | 66 | 1.6 | 11.3 | 0.00 | 0.00 | 0.00 | 64 | 1011.8 |
| 20260509233754 | 18 | 116 | 1.6 | 3.2 | 0.00 | 0.00 | 0.00 | 65 | 1011.9 |
| 20260509233251 | 19 | 63 | 1.6 | 6.4 | 0.00 | 0.00 | 0.00 | 62 | 1012.0 |
| 20260509232747 | 20 | 123 | 1.6 | 4.8 | 0.00 | 0.00 | 0.00 | 62 | 1011.9 |
| 20260509232245 | 20 | 106 | 9.7 | 11.3 | 0.00 | 0.00 | 0.00 | 59 | 1011.9 |
| 20260509231741 | 20 | 97 | 4.8 | 11.3 | 0.00 | 0.00 | 0.00 | 59 | 1012.1 |
| 20260509231238 | 20 | 129 | 3.2 | 16.1 | 0.00 | 0.00 | 0.00 | 58 | 1011.8 |
| 20260509230736 | 20 | 132 | 9.7 | 14.5 | 0.00 | 0.00 | 0.00 | 57 | 1011.7 |
| 20260509230232 | 20 | 246 | 3.2 | 12.9 | 0.00 | 0.00 | 0.00 | 57 | 1011.8 |
| 20260509225727 | 20 | 140 | 4.8 | 11.3 | 0.00 | 0.00 | 0.00 | 57 | 1011.6 |
| 20260509225224 | 21 | 131 | 3.2 | 11.3 | 0.00 | 0.00 | 0.00 | 56 | 1011.6 |
| 20260509224719 | 21 | 144 | 4.8 | 6.4 | 0.00 | 0.00 | 0.00 | 56 | 1011.6 |
| 20260509224217 | 20 | 136 | 3.2 | 6.4 | 0.00 | 0.00 | 0.00 | 57 | 1011.6 |
| 20260509223714 | 21 | 107 | 16.1 | 17.7 | 0.00 | 0.00 | 0.00 | 55 | 1011.8 |
| 20260509223211 | 21 | 114 | 3.2 | 12.9 | 0.00 | 0.00 | 0.00 | 56 | 1011.6 |
| 20260509222708 | 21 | 130 | 1.6 | 6.4 | 0.00 | 0.00 | 0.00 | 55 | 1011.8 |
| 20260509222203 | 21 | 96 | 6.4 | 9.7 | 0.00 | 0.00 | 0.00 | 56 | 1011.7 |
| 20260509221659 | 21 | 128 | 8.0 | 11.3 | 0.00 | 0.00 | 0.00 | 55 | 1012.0 |
| 20260509221155 | 21 | 59 | 3.2 | 9.7 | 0.00 | 0.00 | 0.00 | 55 | 1012.0 |
| 20260509220651 | 21 | 95 | 3.2 | 14.5 | 0.00 | 0.00 | 0.00 | 54 | 1011.9 |
| 20260509220148 | 21 | 211 | 8.0 | 14.5 | 0.00 | 0.00 | 0.00 | 54 | 1011.9 |
| 20260509215644 | 22 | 139 | 6.4 | 11.3 | 0.00 | 0.00 | 0.00 | 53 | 1011.9 |
| 20260509215140 | 22 | 81 | 9.7 | 16.1 | 0.00 | 0.00 | 0.00 | 52 | 1011.8 |
| 20260509214637 | 22 | 105 | 4.8 | 4.8 | 0.00 | 0.00 | 0.00 | 53 | 1011.9 |
| 20260509214134 | 21 | 72 | 4.8 | 6.4 | 0.00 | 0.00 | 0.00 | 55 | 1012.0 |
| 20260509213631 | 21 | 131 | 3.2 | 14.5 | 0.00 | 0.00 | 0.00 | 54 | 1011.8 |
| 20260509213127 | 21 | 153 | 6.4 | 14.5 | 0.00 | 0.00 | 0.00 | 56 | 1012.1 |
| 20260509212625 | 21 | 103 | 12.9 | 14.5 | 0.00 | 0.00 | 0.00 | 55 | 1012.1 |
| 20260509212122 | 20 | 99 | 4.8 | 6.4 | 0.00 | 0.00 | 0.00 | 56 | 1012.0 |
| 20260509211617 | 20 | 103 | 3.2 | 12.9 | 0.00 | 0.00 | 0.00 | 55 | 1011.9 |
| 20260509211114 | 21 | 59 | 4.8 | 9.7 | 0.00 | 0.00 | 0.00 | 55 | 1011.8 |
| 20260509210611 | 21 | 353 | 1.6 | 9.7 | 0.00 | 0.00 | 0.00 | 54 | 1012.0 |
| 20260509210108 | 21 | 99 | 11.3 | 14.5 | 0.00 | 0.00 | 0.00 | 52 | 1011.8 |
| 20260509205608 | 21 | 105 | 3.2 | 11.3 | 0.00 | 0.00 | 0.00 | 54 | 1011.8 |
| 20260509205103 | 22 | 89 | 4.8 | 6.4 | 0.00 | 0.00 | 0.00 | 52 | 1011.9 |
| 20260509204559 | 21 | 89 | 6.4 | 12.9 | 0.00 | 0.00 | 0.00 | 52 | 1011.8 |
| 20260509204056 | 21 | 107 | 3.2 | 12.9 | 0.00 | 0.00 | 0.00 | 54 | 1012.0 |
| 20260509203552 | 21 | 122 | 9.7 | 16.1 | 0.00 | 0.00 | 0.00 | 53 | 1011.7 |
| 20260509203051 | 21 | 100 | 3.2 | 6.4 | 0.00 | 0.00 | 0.00 | 56 | 1011.5 |
| 20260509202545 | 21 | 7 | 4.8 | 12.9 | 0.00 | 0.00 | 0.00 | 54 | 1011.8 |
| 20260509202041 | 21 | 113 | 4.8 | 9.7 | 0.00 | 0.00 | 0.00 | 54 | 1011.6 |
| 20260509201536 | 21 | 316 | 1.6 | 3.2 | 0.00 | 0.00 | 0.00 | 54 | 1011.6 |
| 20260509201034 | 21 | 106 | 8.0 | 11.3 | 0.00 | 0.00 | 0.00 | 54 | 1011.6 |
| 20260509200533 | 21 | 110 | 3.2 | 6.4 | 0.00 | 0.00 | 0.00 | 53 | 1011.5 |
| 20260509200030 | 21 | 154 | 6.4 | 12.9 | 0.00 | 0.00 | 0.00 | 53 | 1011.8 |
| 20260509195525 | 22 | 126 | 4.8 | 11.3 | 0.00 | 0.00 | 0.00 | 54 | 1011.8 |
| 20260509195025 | 21 | 126 | 4.8 | 4.8 | 0.00 | 0.00 | 0.00 | 52 | 1011.7 |
| 20260509194520 | 21 | 82 | 6.4 | 11.3 | 0.00 | 0.00 | 0.00 | 56 | 1012.0 |
| 20260509194018 | 21 | 112 | 8.0 | 14.5 | 0.00 | 0.00 | 0.00 | 52 | 1012.0 |
| 20260509193518 | 22 | 109 | 6.4 | 16.1 | 0.00 | 0.00 | 0.00 | 52 | 1011.9 |
| 20260509193015 | 21 | 101 | 6.4 | 11.3 | 0.00 | 0.00 | 0.00 | 52 | 1012.0 |
| 20260509192511 | 21 | 152 | 9.7 | 14.5 | 0.00 | 0.00 | 0.00 | 53 | 1012.0 |
| 20260509192006 | 21 | 104 | 1.6 | 9.7 | 0.00 | 0.00 | 0.00 | 54 | 1011.9 |
| 20260509191501 | 21 | 127 | 3.2 | 9.7 | 0.00 | 0.00 | 0.00 | 55 | 1012.1 |
| 20260509190957 | 21 | 65 | 3.2 | 4.8 | 0.00 | 0.00 | 0.00 | 56 | 1012.2 |
| 20260509190455 | 21 | 120 | 4.8 | 6.4 | 0.00 | 0.00 | 0.00 | 55 | 1012.0 |
| 20260509185953 | 20 | 129 | 4.8 | 12.9 | 0.00 | 0.00 | 0.00 | 58 | 1012.2 |
| 20260509185449 | 20 | 119 | 8.0 | 16.1 | 0.00 | 0.00 | 0.00 | 57 | 1011.9 |
| 20260509184946 | 19 | 121 | 8.0 | 16.1 | 0.00 | 0.00 | 0.00 | 58 | 1012.1 |
| 20260509184445 | 19 | 127 | 9.7 | 14.5 | 0.00 | 0.00 | 0.00 | 57 | 1012.2 |
| 20260509183941 | 19 | 136 | 4.8 | 12.9 | 0.00 | 0.00 | 0.00 | 58 | 1012.0 |
| 20260509183441 | 19 | 115 | 3.2 | 6.4 | 0.00 | 0.00 | 0.00 | 57 | 1012.0 |
| 20260509182937 | 19 | 142 | 4.8 | 11.3 | 0.00 | 0.00 | 0.00 | 58 | 1012.3 |
| 20260509182433 | 19 | 121 | 9.7 | 12.9 | 0.00 | 0.00 | 0.00 | 58 | 1012.2 |
| 20260509181931 | 19 | 116 | 6.4 | 12.9 | 0.00 | 0.00 | 0.00 | 59 | 1012.2 |
| 20260509181429 | 20 | 342 | 1.6 | 11.3 | 0.00 | 0.00 | 0.00 | 57 | 1012.2 |
| 20260509180926 | 20 | 58 | 8.0 | 14.5 | 0.00 | 0.00 | 0.00 | 57 | 1012.1 |
| 20260509180421 | 20 | 120 | 12.9 | 16.1 | 0.00 | 0.00 | 0.00 | 56 | 1012.4 |
| 20260509175919 | 20 | 95 | 1.6 | 11.3 | 0.00 | 0.00 | 0.00 | 56 | 1012.3 |
| 20260509175414 | 20 | 75 | 6.4 | 9.7 | 0.00 | 0.00 | 0.00 | 58 | 1012.4 |
| 20260509174911 | 20 | 113 | 3.2 | 6.4 | 0.00 | 0.00 | 0.00 | 57 | 1012.3 |
| 20260509174408 | 19 | 100 | 6.4 | 11.3 | 0.00 | 0.00 | 0.00 | 58 | 1012.3 |
| 20260509173904 | 19 | 357 | 4.8 | 9.7 | 0.00 | 0.00 | 0.00 | 58 | 1012.5 |
| 20260509173403 | 19 | 85 | 4.8 | 6.4 | 0.00 | 0.00 | 0.00 | 58 | 1012.6 |
| 20260509172900 | 18 | 94 | 8.0 | 11.3 | 0.00 | 0.00 | 0.00 | 58 | 1012.5 |
| 20260509172357 | 18 | 62 | 9.7 | 14.5 | 0.00 | 0.00 | 0.00 | 58 | 1012.5 |
| 20260509171853 | 18 | 25 | 4.8 | 12.9 | 0.00 | 0.00 | 0.00 | 59 | 1012.6 |
| 20260509171349 | 19 | 70 | 8.0 | 12.9 | 0.00 | 0.00 | 0.00 | 58 | 1012.6 |
| 20260509170845 | 19 | 114 | 1.6 | 4.8 | 0.00 | 0.00 | 0.00 | 59 | 1012.5 |
| 20260509170341 | 18 | 113 | 3.2 | 11.3 | 0.00 | 0.00 | 0.00 | 60 | 1012.6 |
| 20260509165836 | 18 | 101 | 8.0 | 14.5 | 0.00 | 0.00 | 0.00 | 59 | 1012.6 |
| 20260509165331 | 19 | 111 | 14.5 | 17.7 | 0.00 | 0.00 | 0.00 | 58 | 1012.8 |
| 20260509164827 | 18 | 21 | 3.2 | 27.4 | 0.00 | 0.00 | 0.00 | 57 | 1012.7 |